Change the Weather History Date:

Wednesday, October 23, 2013

  Actual Average Record
Temperature  
Mean Temperature 44 °F -  
Max Temperature 48 °F 48 °F - ()
Min Temperature 41 °F 37 °F - ()
Degree Days  
Heating Degree Days 20    
Moisture  
Dew Point 36 °F    
Average Humidity 76    
Maximum Humidity 93    
Minimum Humidity 49    
Precipitation  
Precipitation 0.00 in 0.10 in - ()
Sea Level Pressure  
Sea Level Pressure 29.76 in    
Wind  
Wind Speed 7 mph ()    
Max Wind Speed 14 mph    
Max Gust Speed 21 mph    
Visibility 13.4 miles    
Events Rain    
T = Trace of Precipitation, MM = Missing Value Source: Averaged Metar Reports

Daily Weather History Graph

Daily Weather History Graph

Search for Another Location

Airport or City:

Trip Planner

Search our weather history database for the weather conditions in past years. The results will help you decide how hot, cold, wet, or windy it might be!

Date:

Astronomy

Oct. 23, 2013 Rise Set
Actual Time 7:40 AM EDT 6:20 PM EDT
Civil Twilight 7:11 AM EDT 6:49 PM EDT
Nautical Twilight 6:38 AM EDT 7:23 PM EDT
Astronomical Twilight 6:05 AM EDT 7:55 PM EDT
Moon 9:46 PM EDT (10/23) 12:00 PM EDT (10/23)
Length of Visible Light 11h 38m
Length of Day
10h 40m
Waning Gibbous, 79% of the Moon is Illuminated
Oct 23
Waning Gibbous
Oct 26
Last Quarter
Nov 3
New
Nov 10
First Quarter
Nov 17
Full

Hourly Weather History & Observations

Time (EDT) Temp. Windchill Dew Point Humidity Pressure Visibility Wind Dir Wind Speed Gust Speed Precip Events Conditions
7:00 AM 41.0 °F 35.8 °F 37.4 °F 87% 29.76 in 9.0 mi WSW 8.1 mph - N/A Rain Light Rain Showers
8:00 AM 41.0 °F 36.4 °F 39.2 °F 93% 29.76 in 9.0 mi SW 6.9 mph - N/A Rain Light Rain Showers
8:26 AM 41.0 °F 37.1 °F 39.2 °F 93% 29.76 in 10.0 mi SW 5.8 mph - N/A   Overcast
9:00 AM 42.8 °F 39.3 °F 39.2 °F 87% 29.77 in 12.0 mi WSW 5.8 mph - N/A   Overcast
9:33 AM 42.8 °F 40.1 °F 39.2 °F 87% 29.77 in 12.0 mi NNW 4.6 mph - N/A Rain Light Rain Showers
10:00 AM 41.0 °F 36.4 °F 39.2 °F 93% 29.76 in 10.0 mi NNW 6.9 mph - N/A Rain Light Rain Showers
11:00 AM 41.0 °F 36.4 °F 39.2 °F 93% 29.76 in 12.0 mi SW 6.9 mph - N/A Rain Light Rain Showers
12:00 PM 44.6 °F 41.4 °F 39.2 °F 81% 29.75 in 15.0 mi WNW 5.8 mph - N/A   Mostly Cloudy
1:00 PM 46.4 °F 41.9 °F 39.2 °F 76% 29.75 in 15.0 mi NW 9.2 mph - N/A   Mostly Cloudy
2:00 PM 48.2 °F - 37.4 °F 66% 29.73 in 15.0 mi WNW 8.1 mph - N/A   Mostly Cloudy
3:00 PM 46.4 °F 41.9 °F 35.6 °F 66% 29.73 in 15.0 mi WNW 9.2 mph - N/A   Mostly Cloudy
3:46 PM 46.4 °F 41.1 °F 35.6 °F 66% 29.74 in 15.0 mi NNW 11.5 mph - N/A Rain Light Rain Showers
4:00 PM 42.8 °F 38.0 °F 35.6 °F 76% 29.75 in 15.0 mi West 8.1 mph - N/A Rain Light Rain Showers
4:05 PM 42.8 °F 41.1 °F 37.4 °F 81% 29.75 in 15.0 mi WSW 3.5 mph - N/A   Mostly Cloudy
5:00 PM 42.8 °F 38.0 °F 39.2 °F 87% 29.75 in 15.0 mi South 8.1 mph - N/A   Mostly Cloudy
6:00 PM 44.6 °F 38.8 °F 28.4 °F 53% 29.76 in 15.0 mi NW 11.5 mph 18.4 mph N/A   Scattered Clouds
7:00 PM 44.6 °F 38.8 °F 26.6 °F 49% 29.78 in 15.0 mi NW 11.5 mph 19.6 mph N/A   Scattered Clouds
8:00 PM 42.8 °F 35.8 °F 28.4 °F 57% 29.80 in 15.0 mi NW 13.8 mph 20.7 mph N/A   Scattered Clouds
9:00 PM 42.8 °F 36.6 °F 30.2 °F 61% 29.80 in 15.0 mi WNW 11.5 mph - N/A   Scattered Clouds